| time (UTC) | temp C | wind direction | speed KPH | gust KPH | rain 1hr cm | rain 24hr cm | rain mn cm | humidity % | barometer mb |
| 20260831131505 | 23 | 199 | 9.7 | 19.3 | 0.00 | 0.84 | 0.00 | 81 | 1013.6 |
| 20260831130005 | 23 | 209 | 8.0 | 16.1 | 0.00 | 0.84 | 0.00 | 82 | 1013.6 |
| 20260831125005 | 23 | 194 | 9.7 | 14.5 | 0.00 | 0.84 | 0.00 | 82 | 1013.5 |
| 20260831124504 | 23 | 195 | 8.0 | 14.5 | 0.00 | 0.84 | 0.00 | 83 | 1013.5 |
| 20260831123035 | 22 | 198 | 11.3 | 19.3 | 0.00 | 0.84 | 0.00 | 83 | 1013.5 |
| 20260831121504 | 22 | 206 | 8.0 | 16.1 | 0.00 | 0.84 | 0.00 | 84 | 1013.4 |
| 20260831121004 | 22 | 197 | 6.4 | 11.3 | 0.00 | 0.84 | 0.00 | 84 | 1013.3 |
| 20260831120504 | 22 | 209 | 6.4 | 11.3 | 0.00 | 0.84 | 0.00 | 84 | 1013.2 |
| 20260831115505 | 22 | 214 | 6.4 | 14.5 | 0.00 | 0.84 | 0.00 | 83 | 1013.2 |
| 20260831114504 | 22 | 189 | 11.3 | 19.3 | 0.00 | 0.84 | 0.00 | 83 | 1013.0 |
| 20260831114004 | 22 | 190 | 9.7 | 16.1 | 0.00 | 0.84 | 0.00 | 83 | 1013.0 |
| 20260831112505 | 22 | 195 | 9.7 | 19.3 | 0.00 | 0.84 | 0.00 | 82 | 1013.1 |
| 20260831111004 | 22 | 188 | 11.3 | 16.1 | 0.00 | 0.84 | 0.00 | 82 | 1013.1 |
| 20260831110504 | 22 | 184 | 8.0 | 19.3 | 0.00 | 0.84 | 0.00 | 82 | 1013.2 |
| 20260831105504 | 22 | 180 | 9.7 | 16.1 | 0.00 | 0.84 | 0.00 | 81 | 1013.3 |
| 20260831105004 | 22 | 195 | 11.3 | 16.1 | 0.00 | 0.84 | 0.00 | 81 | 1013.3 |
| 20260831104505 | 22 | 206 | 8.0 | 19.3 | 0.00 | 0.84 | 0.00 | 81 | 1013.4 |
| 20260831104005 | 22 | 192 | 9.7 | 14.5 | 0.00 | 0.84 | 0.00 | 81 | 1013.3 |
| 20260831102504 | 22 | 194 | 9.7 | 14.5 | 0.00 | 0.84 | 0.00 | 81 | 1013.4 |
| 20260831102004 | 22 | 184 | 9.7 | 16.1 | 0.00 | 0.84 | 0.00 | 82 | 1013.4 |
| 20260831101504 | 22 | 183 | 8.0 | 19.3 | 0.00 | 0.84 | 0.00 | 82 | 1013.5 |
| 20260831101004 | 22 | 193 | 6.4 | 14.5 | 0.00 | 0.84 | 0.00 | 82 | 1013.5 |
| 20260831100504 | 22 | 196 | 8.0 | 14.5 | 0.00 | 0.84 | 0.00 | 82 | 1013.4 |
| 20260831100004 | 22 | 182 | 9.7 | 16.1 | 0.00 | 0.84 | 0.00 | 82 | 1013.5 |
| 20260831095503 | 22 | 198 | 8.0 | 11.3 | 0.00 | 0.84 | 0.00 | 82 | 1013.4 |
| 20260831092504 | 22 | 186 | 9.7 | 19.3 | 0.00 | 0.84 | 0.00 | 82 | 1013.4 |
| 20260831085504 | 22 | 180 | 8.0 | 14.5 | 0.00 | 0.84 | 0.00 | 83 | 1013.6 |
| 20260831085005 | 22 | 177 | 8.0 | 19.3 | 0.00 | 0.84 | 0.00 | 83 | 1013.6 |
| 20260831084504 | 22 | 185 | 9.7 | 19.3 | 0.00 | 0.84 | 0.00 | 84 | 1013.6 |
| 20260831082504 | 21 | 161 | 4.8 | 9.7 | 0.00 | 0.84 | 0.00 | 85 | 1013.5 |
| 20260831082004 | 21 | 159 | 3.2 | 8.0 | 0.00 | 0.84 | 0.00 | 85 | 1013.5 |
| 20260831080004 | 22 | 175 | 8.0 | 11.3 | 0.00 | 0.84 | 0.00 | 85 | 1013.3 |
| 20260831075004 | 22 | 163 | 8.0 | 11.3 | 0.00 | 0.84 | 0.00 | 85 | 1013.3 |
| 20260831074504 | 22 | 165 | 6.4 | 9.7 | 0.00 | 0.84 | 0.00 | 85 | 1013.3 |
| 20260831074004 | 22 | 169 | 8.0 | 12.9 | 0.00 | 0.84 | 0.00 | 85 | 1013.3 |
| 20260831071004 | 22 | 158 | 8.0 | 12.9 | 0.00 | 0.84 | 0.00 | 86 | 1013.7 |
| 20260831065504 | 22 | 147 | 8.0 | 16.1 | 0.00 | 0.84 | 0.00 | 85 | 1013.8 |
| 20260831065004 | 22 | 144 | 9.7 | 14.5 | 0.00 | 0.84 | 0.00 | 85 | 1013.9 |
| 20260831064504 | 22 | 142 | 9.7 | 12.9 | 0.00 | 0.84 | 0.00 | 86 | 1013.9 |
| 20260831064003 | 22 | 135 | 8.0 | 12.9 | 0.00 | 0.84 | 0.00 | 86 | 1013.9 |
| 20260831063004 | 22 | 130 | 8.0 | 14.5 | 0.00 | 0.84 | 0.00 | 86 | 1014.1 |
| 20260831061504 | 22 | 139 | 11.3 | 16.1 | 0.00 | 0.84 | 0.00 | 86 | 1014.1 |
| 20260831061004 | 22 | 135 | 11.3 | 14.5 | 0.00 | 0.84 | 0.00 | 86 | 1014.2 |
| 20260831055504 | 22 | 137 | 8.0 | 12.9 | 0.00 | 0.84 | 0.00 | 87 | 1014.1 |
| 20260831054004 | 22 | 134 | 6.4 | 12.9 | 0.00 | 0.84 | 0.00 | 87 | 1014.1 |
| 20260831053004 | 22 | 140 | 9.7 | 14.5 | 0.00 | 0.84 | 0.00 | 88 | 1014.2 |
| 20260831052503 | 22 | 133 | 4.8 | 4.8 | 0.00 | 0.84 | 0.00 | 88 | 1014.1 |
| 20260831051504 | 22 | 146 | 6.4 | 11.3 | 0.00 | 0.84 | 0.00 | 88 | 1014.2 |
| 20260831051004 | 22 | 146 | 8.0 | 11.3 | 0.00 | 0.84 | 0.00 | 88 | 1014.1 |
| 20260831050504 | 23 | 133 | 9.7 | 14.5 | 0.00 | 0.84 | 0.00 | 88 | 1014.1 |
| 20260831050004 | 22 | 143 | 8.0 | 19.3 | 0.00 | 0.84 | 0.00 | 88 | 1014.2 |
| 20260831044504 | 22 | 145 | 8.0 | 12.9 | 0.00 | 0.84 | 0.84 | 89 | 1014.2 |
| 20260831043006 | 22 | 133 | 8.0 | 11.3 | 0.00 | 0.84 | 0.84 | 90 | 1014.2 |
| 20260831041006 | 22 | 143 | 8.0 | 14.5 | 0.00 | 0.84 | 0.84 | 90 | 1014.2 |
| 20260831040005 | 22 | 134 | 11.3 | 19.3 | 0.00 | 0.84 | 0.84 | 90 | 1014.2 |
| 20260831035506 | 22 | 132 | 11.3 | 16.1 | 0.00 | 0.84 | 0.84 | 90 | 1014.2 |
| 20260831035006 | 22 | 135 | 9.7 | 14.5 | 0.00 | 0.84 | 0.84 | 90 | 1014.4 |
| 20260831034505 | 22 | 134 | 11.3 | 19.3 | 0.00 | 0.84 | 0.84 | 91 | 1014.5 |
| 20260831034006 | 22 | 138 | 8.0 | 19.3 | 0.00 | 0.84 | 0.84 | 91 | 1014.5 |
| 20260831033505 | 22 | 123 | 12.9 | 16.1 | 0.00 | 0.84 | 0.84 | 91 | 1014.4 |
| 20260831032506 | 22 | 127 | 9.7 | 14.5 | 0.00 | 0.84 | 0.84 | 92 | 1014.7 |
| 20260831031505 | 22 | 127 | 9.7 | 14.5 | 0.00 | 0.84 | 0.84 | 92 | 1014.8 |
| 20260831031006 | 22 | 125 | 9.7 | 12.9 | 0.00 | 0.84 | 0.84 | 92 | 1014.8 |
| 20260831025505 | 22 | 119 | 4.8 | 9.7 | 0.00 | 0.84 | 0.84 | 92 | 1015.0 |
| 20260831024006 | 22 | 95 | 8.0 | 11.3 | 0.00 | 0.86 | 0.84 | 92 | 1014.9 |
| 20260831021505 | 22 | 103 | 8.0 | 9.7 | 0.00 | 0.89 | 0.84 | 90 | 1014.9 |
| 20260831021005 | 22 | 108 | 9.7 | 14.5 | 0.00 | 0.89 | 0.84 | 90 | 1014.8 |
| 20260831013505 | 22 | 90 | 9.7 | 12.9 | 0.00 | 0.89 | 0.84 | 90 | 1014.6 |
| 20260831013006 | 22 | 83 | 8.0 | 11.3 | 0.00 | 0.89 | 0.84 | 90 | 1014.7 |
| 20260831012505 | 22 | 87 | 8.0 | 9.7 | 0.00 | 0.89 | 0.84 | 89 | 1014.6 |
| 20260831012005 | 22 | 97 | 6.4 | 11.3 | 0.00 | 0.89 | 0.84 | 89 | 1014.7 |
| 20260831011506 | 23 | 107 | 3.2 | 4.8 | 0.00 | 0.89 | 0.84 | 88 | 1014.7 |
| 20260831011005 | 23 | 103 | 4.8 | 9.7 | 0.00 | 0.89 | 0.84 | 88 | 1014.6 |
| 20260831004006 | 23 | 112 | 11.3 | 19.3 | 0.00 | 0.89 | 0.84 | 87 | 1014.2 |
| 20260831003505 | 23 | 103 | 12.9 | 16.1 | 0.00 | 0.89 | 0.84 | 87 | 1014.2 |
| 20260831001006 | 23 | 105 | 11.3 | 19.3 | 0.00 | 0.89 | 0.84 | 87 | 1014.5 |
| 20260831000505 | 23 | 109 | 11.3 | 14.5 | 0.00 | 0.89 | 0.84 | 87 | 1014.7 |
| 20260830235505 | 23 | 95 | 9.7 | 16.1 | 0.00 | 0.89 | 0.84 | 87 | 1014.7 |
| 20260830235006 | 23 | 96 | 9.7 | 14.5 | 0.00 | 0.89 | 0.84 | 88 | 1014.6 |
| 20260830233005 | 23 | 89 | 4.8 | 9.7 | 0.00 | 0.89 | 0.84 | 89 | 1014.7 |
| 20260830232505 | 23 | 86 | 4.8 | 9.7 | 0.00 | 0.89 | 0.84 | 89 | 1014.6 |
| 20260830231505 | 23 | 92 | 3.2 | 4.8 | 0.00 | 0.89 | 0.84 | 89 | 1014.7 |
| 20260830230505 | 23 | 63 | 3.2 | 4.8 | 0.00 | 0.89 | 0.84 | 89 | 1014.9 |
| 20260830225505 | 23 | 117 | 1.6 | 3.2 | 0.00 | 0.89 | 0.84 | 88 | 1014.9 |
| 20260830224505 | 23 | 117 | 3.2 | 4.8 | 0.00 | 0.89 | 0.84 | 88 | 1014.7 |
| 20260830224005 | 23 | 163 | 1.6 | 3.2 | 0.00 | 0.89 | 0.84 | 88 | 1014.8 |
| 20260830223505 | 23 | 163 | 1.6 | 3.2 | 0.00 | 0.89 | 0.84 | 87 | 1014.9 |
| 20260830223005 | 23 | 163 | 1.6 | 3.2 | 0.00 | 0.89 | 0.84 | 87 | 1015.0 |
| 20260830222505 | 23 | 163 | 1.6 | 4.8 | 0.00 | 0.89 | 0.84 | 88 | 1015.0 |
| 20260830222005 | 23 | 147 | 3.2 | 4.8 | 0.00 | 0.89 | 0.84 | 88 | 1015.0 |
| 20260830221505 | 23 | 158 | 3.2 | 4.8 | 0.00 | 0.89 | 0.84 | 88 | 1014.9 |
| 20260830221006 | 23 | 152 | 1.6 | 3.2 | 0.00 | 0.89 | 0.84 | 88 | 1015.0 |
| 20260830215006 | 23 | 151 | 6.4 | 11.3 | 0.00 | 0.89 | 0.84 | 88 | 1014.8 |
| 20260830214005 | 22 | 154 | 6.4 | 11.3 | 0.03 | 0.89 | 0.84 | 91 | 1014.6 |
| 20260830213505 | 22 | 136 | 8.0 | 12.9 | 0.03 | 0.89 | 0.84 | 90 | 1014.5 |
| 20260830213006 | 22 | 143 | 11.3 | 14.5 | 0.05 | 0.89 | 0.84 | 91 | 1014.5 |
| 20260830212005 | 22 | 137 | 9.7 | 14.5 | 0.13 | 0.89 | 0.84 | 91 | 1014.6 |
| 20260830211005 | 22 | 122 | 8.0 | 16.1 | 0.30 | 0.89 | 0.84 | 91 | 1014.7 |
| 20260830210006 | 22 | 141 | 6.4 | 14.5 | 0.33 | 0.89 | 0.84 | 92 | 1014.9 |
| 20260830203505 | 21 | 147 | 19.3 | 29.0 | 0.46 | 0.86 | 0.81 | 92 | 1013.7 |
| 20260830202505 | 21 | 128 | 20.9 | 25.7 | 0.51 | 0.81 | 0.76 | 92 | 1014.1 |
| 20260830200505 | 21 | 145 | 11.3 | 19.3 | 0.30 | 0.58 | 0.53 | 92 | 1015.7 |
| 20260830200005 | 21 | 154 | 9.7 | 19.3 | 0.28 | 0.56 | 0.51 | 91 | 1016.0 |
| 20260830195005 | 21 | 141 | 11.3 | 16.1 | 0.20 | 0.48 | 0.43 | 91 | 1016.1 |
| 20260830193505 | 21 | 181 | 4.8 | 4.8 | 0.13 | 0.41 | 0.36 | 91 | 1016.7 |
| 20260830192504 | 22 | 177 | 4.8 | 4.8 | 0.03 | 0.30 | 0.25 | 90 | 1016.5 |
| 20260830192005 | 22 | 155 | 1.6 | 4.8 | 0.03 | 0.30 | 0.25 | 90 | 1016.1 |
| 20260830191505 | 22 | 173 | 3.2 | 4.8 | 0.00 | 0.28 | 0.23 | 90 | 1016.4 |
| 20260830191005 | 22 | 195 | 4.8 | 4.8 | 0.00 | 0.28 | 0.23 | 90 | 1016.6 |
| 20260830190505 | 22 | 184 | 4.8 | 11.3 | 0.00 | 0.28 | 0.23 | 90 | 1016.4 |
| 20260830185504 | 22 | 182 | 6.4 | 9.7 | 0.03 | 0.28 | 0.23 | 89 | 1016.1 |
| 20260830183504 | 22 | 158 | 3.2 | 11.3 | 0.05 | 0.30 | 0.23 | 90 | 1016.4 |
| 20260830182505 | 22 | 150 | 4.8 | 9.7 | 0.08 | 0.30 | 0.23 | 91 | 1015.8 |
| 20260830182005 | 22 | 101 | 6.4 | 11.3 | 0.10 | 0.30 | 0.23 | 91 | 1015.6 |
| 20260830181005 | 22 | 120 | 8.0 | 12.9 | 0.10 | 0.30 | 0.23 | 91 | 1015.7 |
| 20260830180504 | 21 | 138 | 6.4 | 9.7 | 0.15 | 0.33 | 0.23 | 91 | 1016.1 |
| 20260830175005 | 21 | 191 | 4.8 | 4.8 | 0.13 | 0.30 | 0.20 | 91 | 1016.6 |
| 20260830174504 | 21 | 184 | 4.8 | 4.8 | 0.18 | 0.30 | 0.20 | 91 | 1016.4 |
| 20260830173505 | 21 | 214 | 1.6 | 4.8 | 0.18 | 0.30 | 0.18 | 91 | 1016.3 |
| 20260830173004 | 21 | 269 | 1.6 | 3.2 | 0.18 | 0.33 | 0.18 | 91 | 1016.3 |
| 20260830172505 | 21 | 269 | 1.6 | 4.8 | 0.15 | 0.33 | 0.15 | 90 | 1016.3 |
| 20260830172005 | 21 | 263 | 3.2 | 4.8 | 0.13 | 0.30 | 0.13 | 90 | 1016.4 |
| 20260830171504 | 21 | 17 | 1.6 | 3.2 | 0.13 | 0.33 | 0.13 | 90 | 1016.1 |
| 20260830170004 | 22 | 140 | 1.6 | 4.8 | 0.08 | 0.30 | 0.08 | 88 | 1016.0 |
| 20260830164005 | 23 | 202 | 8.0 | 14.5 | 0.03 | 0.28 | 0.03 | 79 | 1015.5 |
| 20260830162504 | 24 | 202 | 9.7 | 19.3 | 0.00 | 0.30 | 0.00 | 75 | 1015.5 |
| 20260830160505 | 25 | 190 | 9.7 | 16.1 | 0.00 | 0.30 | 0.00 | 72 | 1015.3 |
| 20260830160004 | 25 | 202 | 16.1 | 20.9 | 0.00 | 0.30 | 0.00 | 70 | 1015.0 |
| 20260830155504 | 26 | 188 | 11.3 | 24.1 | 0.00 | 0.33 | 0.00 | 70 | 1014.8 |
| 20260830155004 | 26 | 201 | 14.5 | 24.1 | 0.00 | 0.33 | 0.00 | 68 | 1014.8 |
| 20260830154005 | 26 | 194 | 16.1 | 24.1 | 0.00 | 0.33 | 0.00 | 68 | 1014.3 |
| 20260830153005 | 26 | 183 | 14.5 | 25.7 | 0.00 | 0.33 | 0.00 | 69 | 1014.3 |
| 20260830152005 | 26 | 171 | 11.3 | 22.5 | 0.00 | 0.33 | 0.00 | 69 | 1014.2 |
| 20260830150505 | 25 | 201 | 11.3 | 25.7 | 0.00 | 0.33 | 0.00 | 72 | 1014.5 |
| 20260830150004 | 25 | 160 | 9.7 | 14.5 | 0.00 | 0.33 | 0.00 | 72 | 1014.4 |
| 20260830145505 | 25 | 207 | 9.7 | 16.1 | 0.00 | 0.33 | 0.00 | 71 | 1014.4 |
| 20260830143504 | 25 | 200 | 11.3 | 22.5 | 0.00 | 0.33 | 0.00 | 71 | 1014.2 |
| 20260830143005 | 24 | 184 | 16.1 | 25.7 | 0.00 | 0.33 | 0.00 | 73 | 1014.1 |
| 20260830142504 | 23 | 191 | 16.1 | 24.1 | 0.00 | 0.33 | 0.00 | 74 | 1014.0 |
| 20260830142004 | 23 | 177 | 9.7 | 20.9 | 0.00 | 0.33 | 0.00 | 73 | 1013.9 |
| 20260830141005 | 23 | 173 | 14.5 | 22.5 | 0.00 | 0.33 | 0.00 | 75 | 1013.9 |
| 20260830140504 | 23 | 172 | 14.5 | 25.7 | 0.00 | 0.33 | 0.00 | 75 | 1013.8 |
| 20260830135505 | 23 | 168 | 9.7 | 22.5 | 0.00 | 0.33 | 0.00 | 75 | 1013.6 |
| 20260830134004 | 22 | 176 | 9.7 | 19.3 | 0.00 | 0.33 | 0.00 | 77 | 1013.8 |
| 20260830132004 | 21 | 178 | 6.4 | 12.9 | 0.00 | 0.33 | 0.00 | 78 | 1013.9 |